Date String (YYYY-MM-DD hh:mm:ss) UTC,Instrument flags,Ambient pressure (hPa),Sample flow (lpm),Bypass flow (lpm),Sample temperature (°C),Ambient temperature (°C),ASC tube jacket temperature (°C),LED temperature (°C),Box temperature (°C),Sample RH (%),Span deviation,Mass concentration (μg/m³),Mass concentration (μg/m³),Mass concentration (μg/m³)
DateTimeUTC,F1_M11,P_M11,Q1_M11,Q2_M11,T1_M11,T2_M11,T3_M11,T4_M11,T5_M11,U1_M11,ZSPAN_M11,X2_M11,X0_M11,X1_M11
2022-09-14 15:00:00,,0823.3,5.01,0.00,30.7,29.4,00.0,39.4,32.5,18.8,0001.9,0007.44,0012.47,0006.60
2022-09-14 15:01:00,,0823.3,5.00,0.00,30.7,28.7,00.0,39.4,32.5,19.7,0001.6,0007.50,0012.80,0006.64
2022-09-14 15:02:00,,0823.4,5.00,0.00,30.7,27.2,00.0,39.3,32.4,20.1,0002.0,0007.57,0013.57,0006.69
2022-09-14 15:03:00,,0823.3,5.00,0.00,30.6,26.7,00.0,39.3,32.3,19.4,0002.3,0007.61,0014.20,0006.73
2022-09-14 15:04:00,,0823.4,4.99,0.00,30.5,26.9,00.0,39.2,32.2,19.4,0002.1,0007.60,0014.13,0006.76
2022-09-14 15:05:00,,0823.3,5.00,0.00,30.4,27.2,00.0,39.2,32.0,20.2,0001.7,0007.56,0013.96,0006.78
2022-09-14 15:06:00,,0823.3,4.99,0.00,30.4,27.6,00.0,39.2,32.0,19.7,0001.5,0007.50,0013.85,0006.78
2022-09-14 15:07:00,,0823.3,5.00,0.00,30.3,27.9,00.0,39.1,32.0,18.7,0001.1,0007.48,0014.16,0006.79
2022-09-14 15:08:00,,0823.4,5.01,0.00,30.3,28.1,00.0,39.1,32.0,18.8,0000.9,0007.48,0014.29,0006.80
2022-09-14 15:09:00,,0823.4,4.99,0.00,30.3,28.3,00.0,39.1,32.0,18.4,0001.0,0007.51,0014.65,0006.83
2022-09-14 15:10:00,,0823.3,5.01,0.00,30.3,28.5,00.0,39.1,32.0,18.8,0000.4,0007.54,0014.62,0006.86
2022-09-14 15:11:00,,0823.3,4.99,0.00,30.3,28.6,00.0,39.1,32.0,18.2,0000.4,0007.50,0014.34,0006.83
2022-09-14 15:12:00,,0823.4,5.01,0.00,30.3,28.7,00.0,39.1,32.1,18.3,0000.6,0007.44,0014.07,0006.75
2022-09-14 15:13:00,,0823.4,4.99,0.00,30.3,28.8,00.0,39.1,32.1,19.1,0000.0,0007.40,0013.24,0006.71
2022-09-14 15:14:00,,0823.4,5.01,0.00,30.3,28.9,00.0,39.1,32.1,17.9,-000.2,0007.30,0012.65,0006.64
2022-09-14 15:15:00,,0823.4,5.00,0.00,30.3,28.9,00.0,39.1,32.1,17.5,0000.3,0007.22,0012.59,0006.52
2022-09-14 15:16:00,,0823.4,4.99,0.00,30.4,29.0,00.0,39.1,32.2,17.2,0000.5,0007.13,0012.46,0006.40
2022-09-14 15:17:00,,0823.4,5.00,0.00,30.4,29.1,00.0,39.1,32.2,17.5,0000.7,0007.07,0012.24,0006.30
2022-09-14 15:18:00,,0823.4,5.01,0.00,30.4,29.1,00.0,39.1,32.2,17.5,0001.5,0007.00,0012.04,0006.18
2022-09-14 15:19:00,,0823.4,4.99,0.00,30.4,29.2,00.0,39.1,32.3,17.5,0001.8,0006.89,0011.90,0006.03
2022-09-14 15:20:00,,0823.4,5.02,0.00,30.4,29.2,00.0,39.2,32.3,17.2,0001.4,0006.73,0011.31,0005.88
2022-09-14 15:21:00,,0823.4,4.99,0.00,30.5,29.2,00.0,39.2,32.3,17.3,0001.8,0006.59,0010.84,0005.73
2022-09-14 15:22:00,,0823.4,5.00,0.00,30.5,29.3,00.0,39.2,32.3,17.7,0002.2,0006.48,0010.89,0005.62
2022-09-14 15:23:00,,0823.4,5.00,0.00,30.5,29.3,00.0,39.2,32.4,17.9,0002.4,0006.42,0010.79,0005.58
2022-09-14 15:24:00,,0823.4,5.01,0.00,30.5,29.3,00.0,39.2,32.4,18.1,0002.4,0006.39,0010.79,0005.54
2022-09-14 15:25:00,,0823.5,5.00,0.00,30.6,29.4,00.0,39.2,32.4,18.3,0002.0,0006.39,0010.64,0005.52
2022-09-14 15:26:00,,0823.5,5.00,0.00,30.6,29.4,00.0,39.3,32.4,18.7,0001.4,0006.38,0011.86,0005.53
2022-09-14 15:27:00,,0823.5,4.99,0.00,30.6,29.4,00.0,39.3,32.5,18.2,0001.3,0006.39,0012.47,0005.54
2022-09-14 15:28:00,,0823.6,5.00,0.00,30.7,29.5,00.0,39.3,32.5,18.2,0001.4,0006.37,0012.51,0005.53
2022-09-14 15:29:00,,0823.6,5.00,0.00,30.7,29.5,00.0,39.3,32.5,18.1,0001.1,0006.34,0012.26,0005.53
2022-09-14 15:30:00,,0823.6,5.00,0.00,30.7,29.2,00.0,39.3,32.5,18.4,0001.8,0006.33,0012.28,0005.57
2022-09-14 15:31:00,,0823.6,5.00,0.00,30.7,27.9,00.0,39.3,32.4,18.2,0002.1,0006.43,0012.65,0005.62
2022-09-14 15:32:00,,0823.6,5.01,0.00,30.6,27.0,00.0,39.3,32.3,18.2,0002.5,0006.48,0013.49,0005.67
2022-09-14 15:33:00,,0823.6,5.01,0.00,30.6,27.0,00.0,39.2,32.2,18.2,0002.8,0006.51,0014.09,0005.70
2022-09-14 15:34:00,,0823.6,5.00,0.00,30.5,27.2,00.0,39.2,32.0,18.3,0002.3,0006.50,0014.37,0005.71
2022-09-14 15:35:00,,0823.7,5.02,0.00,30.4,27.6,00.0,39.2,32.0,18.6,0002.1,0006.42,0014.59,0005.69
2022-09-14 15:36:00,,0823.6,5.01,0.00,30.4,27.9,00.0,39.1,32.0,18.4,0002.8,0006.40,0014.55,0005.67
2022-09-14 15:37:00,,0823.6,5.00,0.00,30.3,28.2,00.0,39.1,32.0,18.4,0003.4,0006.34,0014.48,0005.61
2022-09-14 15:38:00,,0823.6,4.99,0.00,30.3,28.4,00.0,39.1,32.0,18.4,0003.6,0006.29,0012.93,0005.56
2022-09-14 15:39:00,,0823.7,5.00,0.00,30.3,28.5,00.0,39.1,32.0,18.4,0003.7,0006.23,0012.50,0005.55
2022-09-14 15:40:00,,0823.7,5.03,0.00,30.3,28.7,00.0,39.1,32.1,18.6,0003.7,0006.21,0012.37,0005.54
2022-09-14 15:41:00,,0823.7,4.99,0.00,30.3,28.8,00.0,39.1,32.1,18.6,0003.6,0006.19,0013.28,0005.53
2022-09-14 15:42:00,,0823.7,5.01,0.00,30.3,28.9,00.0,39.1,32.1,18.4,0003.4,0006.16,0013.41,0005.50
2022-09-14 15:43:00,,0823.7,4.99,0.00,30.4,29.0,00.0,39.1,32.2,18.4,0003.4,0006.13,0013.30,0005.49
2022-09-14 15:44:00,,0823.7,5.01,0.00,30.4,29.0,00.0,39.1,32.2,18.2,0003.0,0006.10,0012.52,0005.47
2022-09-14 15:45:00,,0823.7,5.00,0.00,30.4,29.1,00.0,39.1,32.2,18.3,0002.7,0006.09,0011.81,0005.46
2022-09-14 15:46:00,,0823.7,4.99,0.00,30.4,29.1,00.0,39.1,32.2,18.7,0002.7,0006.13,0011.68,0005.45
2022-09-14 15:47:00,,0823.7,5.00,0.00,30.4,29.2,00.0,39.1,32.3,18.6,0002.1,0006.13,0012.16,0005.43
2022-09-14 15:48:00,,0823.7,5.00,0.00,30.5,29.2,00.0,39.2,32.3,19.0,0001.5,0006.15,0012.42,0005.42
2022-09-14 15:49:00,,0823.7,4.99,0.00,30.5,29.3,00.0,39.2,32.3,18.7,0001.2,0006.18,0012.53,0005.42
2022-09-14 15:50:00,,0823.7,5.01,0.00,30.5,29.3,00.0,39.2,32.4,19.2,0000.8,0006.16,0012.49,0005.39
2022-09-14 15:51:00,,0823.7,5.00,0.00,30.5,29.3,00.0,39.2,32.4,19.1,0000.9,0006.15,0012.48,0005.35
2022-09-14 15:52:00,,0823.7,5.00,0.00,30.6,29.4,00.0,39.2,32.4,18.8,0001.2,0006.10,0011.79,0005.31
2022-09-14 15:53:00,,0823.7,5.00,0.00,30.6,29.4,00.0,39.3,32.4,18.7,0001.5,0006.09,0012.27,0005.28
2022-09-14 15:54:00,,0823.7,5.00,0.00,30.6,29.4,00.0,39.3,32.5,18.9,0001.4,0006.07,0012.27,0005.24
2022-09-14 15:55:00,,0823.7,5.01,0.00,30.7,28.6,00.0,39.3,32.5,18.7,0001.8,0006.03,0012.22,0005.19
2022-09-14 15:56:00,,0823.7,5.01,0.00,30.6,27.1,00.0,39.2,32.3,18.6,0001.9,0006.01,0012.17,0005.14
2022-09-14 15:57:00,,0823.7,5.00,0.00,30.5,26.7,00.0,39.2,32.2,18.5,0000.4,0005.93,0011.76,0005.11
2022-09-14 15:58:00,,0823.7,4.99,0.00,30.5,26.9,00.0,39.1,32.1,18.8,0001.1,0005.94,0011.41,0005.09
2022-09-14 15:59:00,,0823.7,4.99,0.00,30.4,27.3,00.0,39.1,32.0,18.9,0002.6,0005.90,0010.95,0005.07
